Location: Cronhütte
(48.9135°N, 9.6869°E)
Time: 02:08:15
(UTC+00:00)

Daily predictions for brighter satellites

Satellite Brightness Start Highest point End
(mag) Time Altitude Azimuth Time Altitude Azimuth Time Altitude Azimuth
Cosmos 2228 Rocket 3.0 00:05:20 48° SSW 00:06:34 85° W 00:11:06 10° N
Meteor 1-21 4.3 00:04:42 35° S 00:07:09 70° E 00:12:53 10° NNE
Helios 1A Rocket 3.0 00:07:44 40° SE 00:08:56 65° ENE 00:12:46 10° N
Meteor 1-12 Rocket 4.4 00:03:28 10° NNW 00:09:17 63° W 00:11:47 35° SSW
Cosmos 2082 Rocket 2.3 00:07:01 36° S 00:09:19 68° ESE 00:15:00 10° NNE
Cosmos 1833 Rocket 3.6 00:08:10 20° WSW 00:11:45 43° NW 00:17:06 10° NNE
BREEZE-M DEB (TANK) 3.3 00:13:11 43° SW 00:13:38 46° SSW 00:21:16 10° SE
Cosmos 724 4.4 00:12:02 28° SW 00:15:16 74° NW 00:21:08 10° NE
CZ-2D R/B 4.1 00:13:36 10° NE 00:17:39 21° E 00:21:24 11° SE
Cosmos 1908 Rocket 4.4 00:15:38 10° N 00:19:57 47° ENE 00:22:20 23° SE
Cosmos 2360 Rocket 4.2 00:16:17 10° NNW 00:21:09 28° NE 00:25:59 10° ESE
USA 267 3.4 00:17:35 10° NE 00:24:07 75° NNW 00:30:20 12° WSW
DELTA 2 R/B (1) 4.3 00:26:16 30° SSE 00:26:16 30° SSE 00:30:43 10° ESE
Cosmos 1455 2.8 00:26:39 10° N 00:29:59 44° ENE 00:31:18 29° SE
Cosmos 1733 Rocket 3.5 00:26:42 10° NNW 00:30:51 46° W 00:31:54 38° SW
Cosmos 841 Rocket 3.8 00:26:51 10° NNW 00:32:04 66° ENE 00:36:21 15° SE
Resurs 1-4 Rocket 3.6 00:28:04 10° NE 00:32:31 27° E 00:36:00 14° SE
Cosmos 1400 Rocket 3.5 00:32:16 34° WSW 00:33:20 43° WNW 00:37:10 10° N
Nimbus 7 Rocket 4.4 00:27:32 10° NNE 00:33:33 80° WNW 00:36:43 30° SSW
GP-B 4.5 00:29:58 10° NNW 00:33:40 26° WNW 00:35:02 22° WSW
H-2A R/B 3.9 00:33:19 10° N 00:36:50 23° WNW 00:38:59 16° W
Cosmos 2278 3.8 00:35:39 10° NNW 00:41:24 79° ENE 00:46:48 12° SSE
NOSS 3-4 (A) 4.3 00:36:37 10° NW 00:43:06 42° WSW 00:47:10 24° S
NOSS 3-4 (C) 4.3 00:36:43 10° NW 00:43:13 43° WSW 00:47:19 24° S
Cosmos 1346 Rocket 3.1 00:40:46 10° NNW 00:44:31 47° W 00:45:17 40° SW
Cosmos 676 Rocket 4.0 00:42:47 32° SSW 00:45:19 89° WNW 00:50:41 10° NNE
SL-08 R/B 4.4 00:44:05 29° SSW 00:47:31 82° W 00:53:43 10° N
Cosmos 468 Rocket 4.3 00:42:33 10° NNW 00:47:40 49° WSW 00:49:48 31° SSW
Okean 2 3.2 00:49:49 40° SSW 00:51:11 87° W 00:55:11 10° N
Cosmos 1954 Rocket 4.2 00:48:42 30° SW 00:51:22 68° WNW 00:56:42 10° NNE
Cosmos 1745 Rocket 4.1 00:48:37 23° S 00:52:35 71° E 00:58:51 10° NNE
CZ-2C R/B 3.3 00:47:58 10° SE 00:52:57 51° ENE 00:57:58 10° N
Meteor 1-4 Rocket 2.1 00:53:08 56° SSE 00:53:34 70° E 00:56:33 10° NNE
Cosmos 2333 Rocket 3.6 00:48:44 10° NNW 00:54:06 40° NE 00:59:29 10° ESE
Cosmos 2322 Rocket 2.8 00:53:31 10° NNW 00:59:06 56° ENE 01:04:40 10° SE
Cosmos 1300 4.3 00:56:41 10° NW 00:59:11 18° W 00:59:22 18° W
Cosmos 1703 Rocket 3.5 00:58:54 31° S 01:01:00 85° E 01:05:28 10° N
USA 234 3.7 00:56:31 17° SSE 01:01:09 39° SW 01:07:14 10° WNW
Cosmos 1953 2.3 01:00:06 10° NNW 01:03:58 58° W 01:05:20 35° SSW
SL-8 R/B 4.0 01:00:54 10° W 01:05:22 41° SSW 01:09:52 10° SE
NPP 3.9 01:01:36 10° NNE 01:06:59 64° ESE 01:10:33 21° S
Aureole 3 4.4 01:09:14 19° W 01:09:43 20° WNW 01:12:01 10° NNW
SL-27 R/B 4.5 01:08:51 11° SE 01:10:06 14° E 01:11:41 10° ENE
Cosmos 1980 Rocket 3.5 01:08:13 10° NW 01:12:32 22° W 01:14:01 20° WSW
Nadezhda 1 Rocket 4.1 01:07:24 10° NNW 01:13:46 67° W 01:18:17 20° S
Cosmos 1242 Rocket 2.9 01:13:26 28° SSE 01:14:29 40° E 01:17:13 10° NNE
Cosmos 1300 Rocket 3.6 01:12:47 10° N 01:17:08 77° E 01:20:24 17° SSE
ADEOS II 3.0 01:14:46 10° NNE 01:19:46 43° E 01:24:13 13° SSE
MOZ.5/SAFIR/RUBIN 5/SL-8 4.2 01:18:20 26° SSW 01:20:41 46° W 01:25:15 10° NNW
Cosmos 1408 3.1 01:21:25 22° SSE 01:22:55 40° E 01:25:46 10° NNE
COSMOS 2406 3.9 01:19:32 19° WSW 01:23:29 47° NW 01:29:04 10° NNE
IDEFIX/ARIANE 42P 2.6 01:19:34 10° NNE 01:24:52 90° ESE 01:28:29 21° SSW
Lacrosse 5 rocket 1.2 01:21:26 10° WNW 01:25:28 57° SW 01:29:19 10° SE
ALOS 4.0 01:23:30 10° NE 01:27:28 27° E 01:31:24 10° SSE
EXPRESS MD2 3.5 01:27:55 30° S 01:28:39 35° SE 01:32:28 10° ENE
Okean 1-7 4.1 01:30:04 21° WSW 01:32:10 32° WNW 01:36:05 10° N
ATLAS 2AS CENTAUR R/B 3.4 01:33:50 10° NW 01:40:40 58° NE 01:47:12 10° ESE
Cosmos 1315 Rocket 3.6 01:39:37 22° SW 01:41:35 37° WNW 01:45:16 10° N
SJ 16-02 1.8 01:39:50 17° S 01:43:01 56° ESE 01:47:16 10° NNE
CZ-2C R/B 3.5 01:37:31 10° NNE 01:43:22 76° ESE 01:48:25 14° S
SL-16 R/B 2.4 01:37:59 10° NW 01:43:27 49° WSW 01:48:52 10° S
Cosmos 1850 Rocket 4.2 01:46:14 19° SW 01:50:04 66° WNW 01:55:20 10° NNE
Cosmos 2333 4.5 01:44:49 10° NNW 01:50:34 75° ENE 01:56:19 10° SE
Cosmos 2082 Rocket 3.7 01:49:03 10° WSW 01:53:54 27° NW 01:58:45 10° NNE
Cosmos 1709 Rocket 4.2 01:49:42 16° SSW 01:54:44 62° WNW 02:01:05 10° N
Cosmos 1741 Rocket 4.2 01:51:18 18° SW 01:55:12 63° WNW 02:00:27 10° NNE
SL-16 R/B 2.6 01:50:02 10° SSE 01:56:19 89° W 02:02:37 10° NNW
Cosmos 2219 Rocket 2.7 01:51:09 10° NNW 01:56:46 63° ENE 02:02:23 10° SE
Cosmos 1782 Rocket 4.3 01:52:53 10° NNW 01:56:52 35° W 01:59:39 17° SSW
Cosmos 2181 Rocket 4.1 01:51:07 10° N 01:57:32 89° W 02:03:49 10° S
CZ-2D R/B 2.3 01:52:42 10° N 01:58:09 67° WNW 02:02:42 15° SSW
Cosmos 1703 3.1 02:00:01 15° S 02:03:05 88° W 02:06:51 10° N
Meteor 1-28 Rocket 3.0 01:59:53 10° S 02:03:27 71° WSW 02:07:01 10° NNW
Cosmos 1455 4.0 02:02:23 10° NW 02:04:05 13° W 02:05:04 12° WSW
AQUA 3.8 01:59:39 10° NNE 02:04:25 84° ESE 02:08:57 11° SSW
COSMOS 2428 4.3 01:59:40 10° NNW 02:05:01 40° NE 02:10:19 10° ESE
Cosmos 2360 Rocket 2.2 01:59:58 10° NNW 02:05:36 65° WSW 02:11:12 10° SSE
Cosmos 968 Rocket 3.5 02:02:10 16° SSW 02:06:18 69° WNW 02:11:27 10° NNE
USA 267 4.3 02:00:34 10° ENE 02:06:43 46° N 02:12:53 10° WNW
Genesis I 2.9 02:05:37 17° SW 02:08:11 84° SE 02:11:47 10° NE
Meteor 1-24 Rocket 3.9 02:02:53 10° S 02:08:55 86° ESE 02:14:58 10° NNE
RESURS DK-1 2.2 02:05:43 10° NNW 02:09:47 77° WSW 02:13:50 10° SSE
MSX 4.3 02:05:31 10° N 02:11:02 50° WNW 02:16:00 13° SW
DELTA 2 R/B (1) 4.5 02:06:59 11° WSW 02:11:28 28° SSW 02:16:06 10° SE
Resurs 1-4 Rocket 2.6 02:07:29 10° N 02:12:32 48° WNW 02:17:04 13° SW
SAR-Lupe-4 3.7 02:11:22 10° NNE 02:14:57 72° ESE 02:18:31 10° S
FENGYUN 3A 3.8 02:16:42 10° N 02:22:03 66° WNW 02:27:21 10° SSW
IRAS Rocket 4.3 02:17:07 10° NNE 02:22:40 83° ESE 02:28:09 10° SSW
Geosat 4.0 02:26:21 10° SSE 02:31:22 88° WSW 02:36:25 10° NNW
CZ-2C R/B 3.7 02:29:17 10° SSW 02:33:29 25° W 02:37:44 10° NW
Cosmos 2221 Rocket 3.7 02:29:33 10° S 02:34:06 84° E 02:38:40 10° N
ASTEX 1 4.3 02:30:12 10° SSE 02:34:58 51° ENE 02:39:44 10° N
SAR-Lupe-1 4.1 02:33:50 10° N 02:37:23 66° WNW 02:40:55 10° SSW
Cosmos 1825 2.3 02:34:26 10° S 02:37:49 65° E 02:41:14 10° NNE
Sich 1 Rocket 3.6 02:33:49 10° NNW 02:38:18 65° W 02:42:42 10° S
Cosmos 2333 Rocket 2.7 02:33:05 10° NW 02:38:25 41° WSW 02:43:45 10° S
Cosmos 2098 Rocket 4.2 02:33:49 10° NNW 02:38:38 42° W 02:44:14 10° SSW
Cosmos 1295 Rocket 4.5 02:34:28 10° S 02:40:36 86° W 02:46:44 10° N
Cosmos 2151 Rocket 3.7 02:36:24 10° NNW 02:40:49 56° W 02:45:10 10° S
Cosmos 2322 Rocket 3.1 02:38:07 10° NW 02:42:47 27° WSW 02:47:28 10° SSW
YAOGAN 6 4.1 02:39:50 10° NNE 02:42:52 32° E 02:45:52 10° SSE
SL-27 R/B 3.2 02:40:29 10° WSW 02:42:57 27° WNW 02:45:26 10° N
Cosmos 1892 2.5 02:40:25 10° S 02:43:56 89° WNW 02:47:28 10° N
Cosmos 1025 Rocket 4.0 02:41:42 10° S 02:45:56 50° E 02:50:11 10° NNE
Cosmos 1242 Rocket 4.5 02:46:30 10° WNW 02:47:02 10° WNW 02:47:35 10° NW
Meteor 2-5 Rocket 4.3 02:43:43 10° SSW 02:49:26 49° WNW 02:55:14 10° N
